Meath Environmental Platform

Observations for Trim Market St

Time AQI Temp °C Hum % Pres Pa CO μg/m³ H₂S μg/m³ NO μg/m³ NO₂ μg/m³ O₃ μg/m³ SO₂ μg/m³ PM1 μg/m³ PM2.5 μg/m³ PM10 μg/m³
Wednesday 26 August 2026
17:36 2 29.5 42 65,789 0 0 1.34 23.99 106.75 0 2.85 5.96 6.73
17:35 2 29.6 42 65,817 0 0 1.3 22.86 94.98 0 2.85 5.44 5.94
17:34 2 29.7 42 65,795 0 0 1.29 21.48 90.19 0 4.28 8.06 9.91
17:32 2 29.8 42 65,797 0 0 1.23 21.28 91.42 0 3.56 6.48 7.53
17:31 2 29.9 42 65,795 0 0 1.23 21.93 108.3 0 3.56 7.01 8.32
17:30 2 29.9 42 65,789 0 0 1.22 22.87 103.96 0 2.85 5.44 6.73
17:29 2 29.9 42 65,813 0 0 1.19 24.88 108.42 0 4.28 6.5 7.53
17:28 2 29.9 42 65,786 0 0 1.22 22.96 100.98 0 2.14 5.98 6.73
17:26 2 30 42 65,768 0 0 1.15 24.45 106.78 0 2.85 5.45 5.93
17:25 2 30.1 42 65,786 0 0 1.22 21.18 108.66 0 3.56 6.5 8.32
17:23 2 30.1 42 65,829 0 0 1.36 22.67 128.08 0 2.85 5.98 8.32
17:22 2 30.2 42 65,839 0 0 1.42 16.17 78.03 0 4.28 7.02 8.32
17:20 2 30.3 42 65,853 0 0 1.5 23.26 86.15 0 4.28 7.53 9.11
17:17 2 30.4 42 65,847 0 0 1.34 20.4 100.89 0 4.28 7.53 9.11
17:13 2 30.4 42 65,813 0 0 1.36 24.2 107.35 0 2.85 5.96 6.73
17:10 2 30.4 43 65,839 0 0 1.32 23.35 103.3 0 9.98 12.22 17.79
17:09 2 30.3 43 65,811 0 0 1.29 22.83 91.51 0 4.28 6.96 9.1
17:02 2 30 42 65,823 0 0 1.42 25.89 109.89 0 2.85 5.93 7.53
17:01 2 29.9 42 65,825 0 0 1.42 19.56 114.26 0 3.56 6.98 9.11
17:00 2 30 42 65,823 0 0 1.41 22.32 110.29 0 3.56 6.99 8.32